This demonstration page uses our WeatherBlox Daily Observations layout. Learn more.

Hourly Observations for September 21, 2019

Temp ( °F °C ) Dew Point ( °F °C ) Humidity (%) Winds ( mph kmh ) Pressure ( in mb ) Visibility ( mi km ) Precip ( " mm )
8:35 am 08:35 Sunny 71 21.5 66 18.8 85 85 S 5 7 30.21 1023 10 16.09344 0 0
8:55 am 08:55 Sunny 71 21.7 66 18.8 84 84 SSW 7 11 30.21 1023 10 16.09344 0 0
9:15 am 09:15 Sunny 72 22.1 65 18.6 81 81 SSW 6 9 30.21 1023 10 16.09344 0 0
9:35 am 09:35 Sunny 73 22.5 66 18.7 79 79 SSW 6 9 30.21 1023 10 16.09344 0 0
9:55 am 09:55 Sunny 73 23 66 18.8 77 77 SSW 6 9 30.21 1023 10 16.09344 0 0
10:15 am 10:15 Sunny 74 23.1 66 19.1 78 78 SSW 3 6 30.21 1023 10 16.09344 0 0
10:40 am 10:40 Sunny 75 23.7 66 19.1 76 76 SSW 7 11 30.21 1023 10 16.09344 0 0
10:55 am 10:55 Sunny 75 24 67 19.5 76 76 SSW 7 11 30.21 1023 10 16.09344 0 0
11:15 am 11:15 Sunny 76 24.7 67 19.5 73 73 SSW 6 9 30.21 1023 10 16.09344 0 0
11:30 am 11:30 Sunny 77 25 66 19 69 69 SW 7 11 30.21 1023 10 16.09344 0 0
12:20 pm 12:20 Sunny N/A N/A N/A WSW 10 17 N/A 10 16.09344 0 0
1:15 pm 13:15 Sunny 81 27.2 66 18.9 61 61 SW 8 13 30.18 1022 10 16.09344 0 0
1:35 pm 13:35 Sunny 81 27.2 65 18.4 59 59 WSW 12 19 30.18 1022 10 16.09344 0 0
1:55 pm 13:55 Sunny 82 27.9 66 18.9 58 58 SW 7 11 30.18 1022 10 16.09344 0 0
2:15 pm 14:15 Sunny 82 27.7 64 17.8 55 55 SW 12 19 30.18 1022 10 16.09344 0 0
2:35 pm 14:35 Sunny 82 27.7 64 17.9 55 55 SW 12 19 30.18 1022 10 16.09344 0 0
2:55 pm 14:55 Sunny 81 27.4 64 17.8 56 56 SSW 10 17 30.15 1021 10 16.09344 0 0
3:15 pm 15:15 Sunny 82 27.6 64 17.9 56 56 WSW 10 17 30.15 1021 10 16.09344 0 0
3:35 pm 15:35 Sunny 83 28.3 65 18.2 54 54 SW 7 11 30.15 1021 10 16.09344 0 0
3:55 pm 15:55 Sunny 83 28.3 65 18.1 54 54 SSW 7 11 30.15 1021 10 16.09344 0 0
4:35 pm 16:35 Partly Cloudy 85 29.3 64 17.7 50 50 SSW 8 13 30.09 1019 10 16.09344 0 0
4:55 pm 16:55 Sunny 84 29.1 63 17.4 49 49 SW 12 19 30.09 1019 10 16.09344 0 0
5:15 pm 17:15 Sunny 83 28.1 61 16.3 49 49 SSW 12 19 30.12 1020 10 16.09344 0 0
5:35 pm 17:35 Sunny 84 28.8 62 16.7 48 48 SSW 9 15 30.09 1019 10 16.09344 0 0
5:55 pm 17:55 Sunny 83 28.4 61 16.2 48 48 SSW 8 13 30.12 1020 10 16.09344 0 0
6:15 pm 18:15 Sunny 82 27.6 61 15.9 49 49 SSW 8 13 30.12 1020 10 16.09344 0 0
6:35 pm 18:35 Sunny 80 26.9 61 16.3 52 52 SSW 8 13 30.12 1020 10 16.09344 0 0
6:55 pm 18:55 Sunny 79 26.3 61 16.3 54 54 SSW 8 13 30.12 1020 10 16.09344 0 0

Powered by AerisWeather